RH
84 85 84 78 90 75 73 83 95 88 78 83 70 69 63 67 66 68 63 56 54 55 54 55 59 60 46 40 38 37 42 50 57 46 44 48 68 69 58 63 58 46 44
78 78 75 72 71 74 72 76 86 88 90 94 85 73 68 75 72 78 69 53 51 52 51 52 51 41 61 59 41 60 50 54 61 72 60 52 60 70 79 87 59 41 42
61 59 62 65 66 75 80 75 89 90 89 81 84 84 75 80 77 88 76 63 57 52 50 55 52 53 61 51 57 51 41 44 47 47 50 44 44 43 58 81 86 85 50
57 59 67 69 70 74 81 77 81 78 84 76 80 89 89 76 82 85 77 58 59 59 55 55 60 63 72 69 57 63 55 52 48 48 43 42 41 50 44 49 58 93 90
58 63 77 70 65 68 71 70 72 79 86 90 87 92 92 91 76 70 67 63 66 71 68 63 66 69 75 72 56 64 72 58 46 40 39 40 37 39 47 38 44 55 68
59 69 77 79 72 70 70 71 73 73 80 79 74 72 69 57 87 84 77 68 71 72 69 68 68 69 69 79 76 77 74 75 75 58 50 50 64 56 44 42 41 44 44
73 70 73 70 77 74 73 76 75 75 72 72 71 70 74 79 82 81 76 63 67 70 70 67 61 45 63 60 66 78 81 82 78 72 75 70 70 69 70 72 69 61 54
75 71 71 72 71 70 70 69 68 64 65 64 64 63 64 59 78 75 71 57 51 56 61 60 62 63 60 62 62 60 62 60 60 59 73 73 70 66 69 66 73 74 61
66 68 68 67 66 64 65 65 62 61 58 57 52 56 59 60 73 75 72 56 47 51 48 52 52 57 65 89 66 66 67 62 55 69 71 74 74 77 71 80 70 76 53
63 62 61 61 61 60 61 63 60 57 51 46 52 53 58 58 68 78 68 46 50 43 53 51 54 58 86 81 69 68 73 64 60 61 63 63 73 68 80 70 57 60 50
54 54 57 56 51 58 60 59 57 54 58 54 53 51 52 46 50 76 78 53 44 45 44 43 39 78 78 80 81 63 67 71 71 62 56 51 50 49 55 62 75 60 56
54 54 57 56 47 44 58 58 57 55 57 52 52 40 28 42 58 71 69 69 63 51 52 44 49 72 71 78 72 68 76 73 46 44 48 48 47 42 46 56 69 76 72
53 53 52 53 51 52 55 56 40 49 36 39 30 30 28 28 34 67 67 76 66 54 47 54 72 78 80 66 65 72 75 54 51 48 44 45 47 42 57 68 81 86 79
51 52 47 46 48 47 38 34 32 30 31 32 33 32 31 33 34 36 41 43 56 56 60 59 66 71 72 66 62 58 52 50 51 50 45 42 46 51 55 49 58 57 84
45 43 43 36 40 41 46 35 35 43 37 35 34 34 36 38 39 60 62 51 55 63 72 68 63 57 56 51 50 55 55 55 52 56 59 65 53 64 59 68 75 70 75
44 33 31 32 30 30 31 33 54 61 66 69 67 56 37 57 72 81 85 86 87 86 77 74 70 63 62 59 55 54 55 54 58 53 50 76 90 84 70 56 70 84 70
46 45 34 36 31 33 32 32 32 35 73 72 78 81 84 79 86 82 88 87 87 86 66 66 66 63 62 60 56 55 59 54 64 63 66 60 68 87 92 78 70 65 82
47 61 39 31 28 28 28 30 30 30 31 30 48 66 78 86 86 84 86 84 74 74 75 77 75 71 68 66 64 60 60 62 63 63 58 61 52 70 87 86 73 78 69
43 33 31 28 27 32 28 27 26 28 30 32 39 49 57 76 82 84 86 75 79 78 75 76 77 75 73 72 69 65 69 71 68 66 64 64 61 59 60 70 76 78 74
33 48 49 29 26 26 24 25 28 35 40 49 54 57 59 72 76 75 77 80 81 79 77 78 77 77 78 78 77 80 84 81 78 73 62 72 78 63 57 48 57 67 72
31 29 47 24 23 23 26 33 38 45 51 55 59 61 86 88 79 80 81 80 81 81 81 80 80 79 79 80 79 78 77 74 71 64 75 86 81 79 61 56 46 54 51
28 25 24 24 24 30 38 40 46 48 52 58 62 66 81 65 66 72 76 78 77 77 78 82 86 82 80 84 86 86 87 86 83 81 78 77 79 82 71 75 71 57 60
25 22 22 24 32 47 40 43 46 49 51 54 55 58 66 72 74 80 84 79 77 78 76 79 85 88 89 88 83 89 93 90 86 88 91 92 94 95 93 90 90 90 84
22 21 23 28 34 38 40 44 45 58 57 52 53 61 69 72 76 79 80 82 84 82 82 85 92 94 91 89 91 93 94 86 88 90 87 92 94 95 93 92 87 82 82
19 23 29 34 36 40 41 42 47 50 56 60 58 58 67 73 80 82 85 89 89 89 89 92 94 90 89 90 89 88 88 89 90 91 92 92 95 94 91 90 85 77 81
24 27 33 35 36 38 38 41 47 55 63 63 67 68 72 81 85 89 91 90 92 91 91 93 91 86 85 86 87 90 97 98 89 96 83 89 93 94 94 88 88 87 82
Wind_Speed
8 6 5 3 5 4 4 5 7 8 6 4 5 4 3 6 5 3 4 2 2 4 5 6 6 6 7 9 9 9 6 7 11 11 10 11 11 9 10 9 7 10 9
5 4 4 4 4 4 4 5 6 6 4 4 7 6 5 5 5 5 7 6 4 5 6 6 6 7 7 8 10 9 10 10 9 12 11 10 10 8 8 8 11 12 9
7 7 7 6 5 3 3 7 4 6 6 6 6 8 9 7 3 3 3 6 5 6 6 6 8 8 7 8 8 10 11 10 12 11 11 9 8 9 7 6 7 10 11
7 6 5 5 5 4 2 2 1 3 1 3 2 3 5 6 5 6 4 7 7 6 7 8 7 9 9 10 9 8 10 11 12 12 11 11 10 8 8 7 9 5 7
4 4 6 5 6 5 6 7 6 6 4 2 1 2 5 6 3 4 8 8 9 7 8 11 12 8 5 7 10 12 10 11 11 12 12 11 11 9 8 7 8 7 7
3 5 4 5 4 6 7 7 6 6 6 4 3 3 4 2 8 11 8 7 9 10 13 13 12 13 13 16 19 19 15 11 12 13 13 14 14 11 9 9 10 10 10
4 5 4 5 7 5 5 5 5 4 3 3 4 5 6 3 8 9 10 9 10 11 12 14 15 14 12 14 14 10 15 19 19 15 16 14 16 14 12 12 10 11 10
5 5 6 5 5 5 5 5 4 3 4 4 6 7 8 7 8 9 10 11 12 12 12 12 13 13 13 13 14 15 14 14 13 11 14 15 15 14 15 13 12 13 11
5 4 4 4 4 4 5 5 4 5 4 5 5 6 7 8 4 2 4 10 12 12 12 12 12 13 12 7 11 16 16 14 14 18 19 18 19 18 16 10 12 11 14
4 4 4 4 4 4 4 4 4 4 4 6 6 7 7 8 6 3 3 9 12 11 12 12 13 13 5 9 10 11 13 15 15 16 17 17 15 17 20 17 13 15 12
3 3 3 3 1 4 4 4 5 5 6 5 6 7 9 4 5 8 4 7 10 11 12 11 11 11 9 9 9 12 12 11 12 15 16 14 15 15 13 13 16 15 15
1 2 3 3 5 5 5 5 6 6 7 6 6 7 7 6 2 9 7 5 8 10 12 12 12 19 21 15 14 18 17 17 15 15 14 15 15 13 12 10 13 16 15
1 3 4 4 4 6 7 7 8 6 7 7 8 9 9 8 9 5 6 1 6 11 12 16 18 16 15 16 19 17 17 13 13 14 14 14 14 12 12 8 6 10 17
3 4 5 6 5 7 6 8 7 7 8 8 9 10 10 10 10 8 10 13 14 13 16 13 18 23 28 27 20 15 14 14 14 14 14 13 14 13 11 10 10 9 11
4 5 6 7 5 7 9 7 8 8 5 9 10 10 11 11 10 8 10 12 10 11 14 11 12 13 13 13 10 11 11 11 13 9 10 11 13 12 10 9 9 7 8
7 6 6 7 8 8 8 9 6 13 11 13 16 14 11 9 7 6 10 13 14 16 10 11 12 12 12 10 10 10 10 14 12 12 12 10 9 12 12 12 9 9 12
6 7 7 8 8 9 9 10 11 9 13 17 16 12 7 15 12 13 15 15 15 14 13 11 11 12 11 11 11 10 9 11 10 11 7 11 10 7 12 12 11 11 8
7 8 9 8 9 10 10 10 11 11 12 12 4 2 4 1 9 15 16 16 11 10 9 10 10 10 11 11 10 10 10 9 9 9 10 9 14 9 8 12 10 8 10
7 7 7 9 9 9 11 11 11 12 12 13 13 15 14 13 15 16 12 9 10 10 10 10 9 10 10 9 11 10 9 9 9 9 9 9 12 12 11 11 11 12 11
8 4 6 8 9 10 9 11 11 12 14 13 12 13 13 12 13 13 11 10 10 10 10 10 10 10 10 10 10 9 9 10 10 9 11 9 9 13 13 14 13 12 12
9 9 3 8 9 10 10 11 12 12 10 10 11 12 15 11 13 12 11 10 10 11 11 11 11 10 10 10 10 9 10 10 9 11 9 8 9 13 14 14 13 12 10
10 7 7 8 9 9 11 11 9 9 10 10 10 12 16 13 12 12 12 12 12 12 10 11 10 11 10 10 10 10 10 11 10 9 9 9 9 10 12 9 10 13 12
9 8 8 8 8 10 9 7 8 9 10 12 11 11 11 11 12 13 13 13 13 13 12 11 11 11 10 10 10 10 10 10 10 9 9 9 8 7 5 5 6 11 11
9 8 8 8 7 7 7 8 9 10 9 12 13 10 10 13 14 15 15 14 14 14 13 13 12 14 12 12 10 9 10 10 9 9 13 9 8 7 4 5 7 12 10
8 7 7 8 8 6 7 8 9 11 10 11 10 13 11 14 15 15 15 15 16 16 17 16 13 16 18 18 17 16 14 13 11 10 7 9 6 7 7 7 9 11 11
7 7 7 6 5 6 7 9 11 10 11 12 12 8 12 13 14 15 16 17 17 18 20 15 16 21 21 16 17 18 14 13 13 11 10 8 7 6 6 10 12 8 11
Wind_Direction
61 82 67 80 51 21 350 325 347 36 303 267 165 106 211 165 172 234 288 209 255 293 309 278 283 308 297 308 307 304 274 269 287 294 297 291 298 304 304 314 276 248 240
115 110 109 158 184 199 249 285 320 95 76 213 217 226 228 199 200 169 277 323 339 285 284 292 288 291 322 293 284 295 315 309 256 277 284 291 284 287 281 293 288 276 275
83 80 77 54 33 14 328 254 239 233 248 284 248 258 225 199 173 293 266 282 302 279 276 292 284 290 285 291 306 299 297 305 304 292 288 275 283 291 255 249 262 282 278
113 123 111 99 109 132 178 83 315 325 282 171 257 311 302 311 334 285 301 274 273 264 278 276 272 272 268 273 277 292 290 291 288 276 269 268 258 257 261 255 262 237 270
123 66 60 132 140 70 65 68 79 84 77 28 332 285 244 267 260 303 265 276 280 289 284 276 271 282 312 279 284 282 286 284 288 289 285 276 268 258 247 264 260 239 260
90 72 63 58 73 60 58 69 74 70 48 21 301 271 261 331 63 48 15 322 307 295 280 280 274 278 265 242 242 248 256 270 272 277 282 283 292 298 283 278 281 285 263
99 65 53 64 62 50 48 64 59 43 12 345 327 324 325 344 72 47 14 319 306 296 294 285 278 275 286 293 290 261 245 237 240 253 262 265 279 288 294 295 283 285 278
108 74 42 50 49 39 39 30 29 5 350 332 329 329 321 314 49 24 354 308 288 280 275 274 280 285 287 288 289 289 288 288 277 259 248 255 257 261 266 267 267 274 271
98 83 56 50 42 29 23 12 6 346 333 334 331 317 309 303 334 284 291 306 297 299 296 291 291 291 299 17 303 289 283 280 287 277 273 274 268 257 246 260 265 257 244
71 58 46 43 41 28 12 8 354 341 358 327 342 320 317 305 291 148 283 317 315 309 305 302 303 283 118 28 302 288 284 282 292 298 308 296 269 259 247 245 249 258 266
50 65 54 28 340 55 5 2 343 340 329 312 310 314 286 313 337 171 175 310 319 318 305 296 292 50 6 313 296 293 277 279 289 288 284 277 270 264 240 224 232 239 246
60 55 43 22 350 17 339 331 323 299 287 302 290 301 323 333 306 126 173 236 315 306 304 301 302 335 326 312 301 290 289 280 274 266 262 265 265 260 248 254 239 229 234
346 360 349 340 335 332 315 306 291 293 303 315 321 325 318 326 323 175 197 182 312 321 302 299 296 290 285 285 278 289 292 279 271 273 261 257 265 266 281 261 254 230 231
332 315 297 300 308 294 303 298 311 316 320 317 328 316 316 315 310 331 336 323 323 314 316 316 307 288 268 261 272 268 261 258 250 256 256 268 264 270 279 271 271 264 236
314 306 299 282 277 312 274 301 307 296 303 304 305 308 309 305 314 344 306 307 306 296 302 296 289 289 289 284 282 283 285 282 277 273 286 289 274 276 267 254 263 276 266
312 294 336 312 298 303 307 307 254 232 226 216 237 248 278 292 281 296 278 267 258 262 279 279 275 276 276 278 270 265 269 277 284 281 279 281 279 281 269 268 269 268 271
313 307 315 313 308 297 305 310 310 312 228 231 232 240 239 264 289 283 276 275 282 281 282 284 282 286 289 294 291 287 276 271 283 282 271 285 279 276 294 260 257 256 266
306 267 268 301 318 313 311 322 303 300 316 318 307 191 52 313 324 320 311 310 302 285 281 278 276 277 283 288 295 285 283 282 273 280 287 283 281 277 280 268 248 238 255
290 297 324 318 307 307 293 298 319 319 318 324 343 341 332 344 315 300 304 305 303 300 295 286 277 272 269 272 278 285 284 277 274 270 273 280 285 284 273 264 251 225 240
306 262 252 298 310 298 326 325 326 339 341 351 333 322 326 321 316 311 306 302 296 290 292 291 288 280 272 270 270 270 273 272 265 264 270 280 273 279 261 259 259 255 240
331 312 297 290 329 335 326 348 345 338 337 321 322 311 307 307 303 301 299 295 290 286 283 282 282 283 277 268 265 262 265 265 262 271 262 252 258 273 268 269 253 255 255
301 314 330 327 332 338 360 338 337 322 326 316 314 312 304 304 306 303 298 295 291 285 279 274 270 270 271 269 265 258 259 260 261 255 259 261 264 268 273 287 279 259 263
298 336 327 336 332 6 337 336 327 321 313 315 313 315 314 308 305 303 297 294 292 289 285 276 267 263 259 257 255 248 253 253 251 251 259 249 263 278 291 306 296 295 263
317 340 339 328 352 338 341 332 318 311 315 317 318 313 315 311 306 304 301 296 292 287 283 280 274 265 261 255 252 246 246 249 250 250 251 258 255 262 259 290 282 285 289
340 343 331 327 341 348 322 318 320 328 321 310 313 327 326 313 308 307 303 299 296 292 287 281 274 268 264 253 246 245 245 237 251 265 251 254 245 259 264 265 272 288 289
338 336 327 327 338 319 320 342 327 321 309 305 310 328 330 318 313 309 308 304 300 299 302 294 280 270 266 262 248 241 239 228 238 234 248 256 245 244 247 256 265 268 277